一网星座-0542星 (ONEWEB-0542 )

导读

ONEWEB-0542是英国OneWeb公司的低轨通信卫星,于2022年12月8日发射,属于OneWeb第一代低轨卫星星座组网卫星。该卫星运行在1200千米近地轨道,单颗重约147.5kg,配备Ku、Ka波段天线,依托全球关口站为全球提供宽带互联网接入服务,侧重服务政府及偏远地区网络需求,是OneWeb实现全球覆盖卫星通信网络的重要组成部分。

基本信息
目录编号:
54646
目录名称:
ONEWEB-0542
国际标识:
2022-166E
轨道中心:
EARTH
卫星名称:
一网星座-0542星
卫星全名:
一网星座-0542星 (ONEWEB-0542 )
卫星状态:
在轨 (已飞行1377 天)
发射日期:
2022-12-08 UTC
国别 :
英国 (GB)
星等 :
--
该卫星已列入 空间交会检测服务 Space Conjunction Data Service (SCDS) ,当前飞行风险评估等级: 无高风险
轨道信息
数据来源 国际轨道数据 AOE轨道数据
星历时间 2026-09-15T17:06:59+0800
14小时前
查看轨道信息
2026-09-15T07:00:00+0800
1天前
查看轨道信息
半长轴 7555.891km 7555.892km
偏心率 0.0002345 0.0002575
轨道倾角 87.928° 87.928°
近地点辐角 85.618° 81.527°
升交点赤经 226.022° 226.104°
平近点角 274.522° 73.928°
近地点 1175.982km 1175.809km
远地点 1179.526km 1179.701km
周期 108.940分钟 108.940分钟
每日圈数 13.21826 13.218257
详细信息
平衡模式:
三轴稳定
覆盖范围:
全球
运营商:
一网卫星公司
运营商所在国:
英国
制造商(研发单位):
一网卫星公司
制造商所在国:
英国
使用方式:
暂无
卫星简介
OneWeb卫星网络由648颗重约125公斤的微型卫星组成,运行在1200公里的轨道上。 每颗卫星都能够提供至少每秒8千兆位的吞吐量,以使用其高吞吐量的Ku频段有效载荷为家庭和移动平台提供互联网接入。该卫星仍在工作。
2D轨道图
3D轨道图
轨道高度分析图
轨道倾角分析图
轨道综合分析图
查看轨道综合分析图
与全量物体交会距离演化趋势 订阅飞行安全评估服务
与全量物体交会风险概率演化趋势 订阅飞行安全评估服务